TimeCDT,TemperatureF,Dew PointF,Humidity,Sea Level PressureIn,VisibilityMPH,Wind Direction,Wind SpeedMPH,Gust SpeedMPH,PrecipitationIn,Events,Conditions,WindDirDegrees,DateUTC
12:56 AM,54.0,50.0,86,29.97,10.0,Calm,Calm,-,N/A,,Clear,0,2012-10-16 05:56:00
1:56 AM,54.0,48.9,83,29.96,10.0,NNW,4.6,-,N/A,,Clear,340,2012-10-16 06:56:00
2:56 AM,52.0,48.0,86,29.96,10.0,NNW,4.6,-,N/A,,Clear,340,2012-10-16 07:56:00
3:56 AM,51.1,46.9,86,29.96,10.0,North,5.8,-,N/A,,Clear,360,2012-10-16 08:56:00
4:56 AM,52.0,46.9,83,29.97,10.0,North,5.8,-,N/A,,Clear,350,2012-10-16 09:56:00
5:56 AM,52.0,46.0,80,29.96,10.0,Calm,Calm,-,N/A,,Clear,0,2012-10-16 10:56:00
6:56 AM,50.0,46.0,86,29.98,10.0,Calm,Calm,-,N/A,,Clear,0,2012-10-16 11:56:00
7:56 AM,54.0,48.9,83,29.98,10.0,North,3.5,-,N/A,,Clear,360,2012-10-16 12:56:00
8:56 AM,63.0,50.0,63,29.99,10.0,NNE,3.5,-,N/A,,Partly Cloudy,30,2012-10-16 13:56:00
9:56 AM,68.0,48.0,49,29.99,10.0,ENE,9.2,-,N/A,,Clear,60,2012-10-16 14:56:00
10:56 AM,71.1,45.0,39,29.99,10.0,ENE,10.4,-,N/A,,Clear,60,2012-10-16 15:56:00
11:56 AM,72.0,42.1,34,29.97,10.0,NE,10.4,-,N/A,,Clear,40,2012-10-16 16:56:00
12:56 PM,73.9,43.0,33,29.95,10.0,NNE,11.5,-,N/A,,Clear,30,2012-10-16 17:56:00
1:56 PM,73.0,45.0,37,29.94,10.0,North,4.6,-,N/A,,Clear,10,2012-10-16 18:56:00
2:56 PM,73.9,43.0,33,29.92,10.0,North,4.6,-,N/A,,Clear,360,2012-10-16 19:56:00
3:56 PM,72.0,46.0,40,29.89,10.0,NE,3.5,-,N/A,,Clear,50,2012-10-16 20:56:00
4:56 PM,70.0,51.1,51,29.89,10.0,Calm,Calm,-,N/A,,Clear,0,2012-10-16 21:56:00
5:56 PM,66.0,57.9,75,29.88,10.0,Calm,Calm,-,N/A,,Clear,0,2012-10-16 22:56:00
6:56 PM,63.0,57.9,84,29.88,10.0,Calm,Calm,-,N/A,,Clear,0,2012-10-16 23:56:00
7:56 PM,61.0,57.0,87,29.88,10.0,Calm,Calm,-,N/A,,Clear,0,2012-10-17 00:56:00
8:56 PM,60.1,55.9,86,29.89,10.0,Calm,Calm,-,N/A,,Clear,0,2012-10-17 01:56:00
9:56 PM,59.0,55.9,90,29.91,10.0,Calm,Calm,-,N/A,,Clear,0,2012-10-17 02:56:00
10:56 PM,57.9,55.0,90,29.91,10.0,Calm,Calm,-,N/A,,Clear,0,2012-10-17 03:56:00
11:56 PM,57.0,55.0,93,29.89,10.0,Calm,Calm,-,N/A,,Clear,0,2012-10-17 04:56:00